Tracking 29892 objects as of 21-Nov-2024
HD Live streaming from Space Station
objects crossing your sky now

ELECTRON KICK STAGE R/B

Track ELECTRON KICK STAGE R/B now!
10-day predictions


NORAD ID: 61226
Int'l Code: 2024-171G
Perigee: 563.2 km
Apogee: 640.0 km
Inclination: 98.0 °
Period: 96.6 minutes
Semi major axis: 6972 km
RCS: Unknown
Launch date: September 20, 2024
Source: United States (US)
Launch site: Rocket Lab Launch Complex (RLLC)

Note: This is a ROCKET BODY
Your satellite tracking list
Your tracking list is empty




NASA's NSSDC Master Catalog

Two Line Element Set (TLE):
1 61226U 24172G   24325.21054377  .00008188  00000-0  80760-3 0  9997
2 61226  98.0130  52.5476 0055097 210.3982 149.4038 14.91123276  8924
Source of the keplerian elements: AFSPC